When you browse on this site, cookies collect data to enhance your experience and personalize the content and advertising you see.
Visit our Privacy Policy to learn more. By continuing to use the site, you agree to this use of cookies and data.

Hourly Weather Rokitno

Today, 23 September, Wednesday

Time Temperature Precipitation Wind Pressure Humidity
00:00 +16°C° 0 mm 1 mps 735 mmHg 62%
01:00 +16°C° 0 mm 1 mps 735 mmHg 64%
02:00 +16°C° 0 mm 1 mps 735 mmHg 64%
03:00 +16°C° 0 mm 2 mps 734 mmHg 65%
04:00 +15°C° 0 mm 2 mps 734 mmHg 65%
05:00 +16°C° 0 mm 2 mps 734 mmHg 63%
06:00 +16°C° 0 mm 2 mps 734 mmHg 62%
07:00 +17°C° 0 mm 2 mps 734 mmHg 61%
08:00 +19°C° 0 mm 3 mps 734 mmHg 55%
09:00 +21°C° 0 mm 3 mps 733 mmHg 49%
10:00 +25°C° 0 mm 3 mps 733 mmHg 43%
11:00 +25°C° 0 mm 3 mps 733 mmHg 42%
12:00 +26°C° 0 mm 3 mps 733 mmHg 41%
13:00 +27°C° 0 mm 3 mps 733 mmHg 40%
14:00 +26°C° 0 mm 2 mps 733 mmHg 43%
15:00 +26°C° 0 mm 2 mps 732 mmHg 46%
16:00 +25°C° 0 mm 1 mps 732 mmHg 49%
17:00 +24°C° 0.1 mm 1 mps 732 mmHg 53%
18:00 +22°C° 0.1 mm 1 mps 732 mmHg 58%
19:00 +19°C° 0.1 mm 0 mps 732 mmHg 62%
20:00 +18°C° 0 mm 0 mps 732 mmHg 64%
21:00 +20°C° 0 mm 1 mps 731 mmHg 66%
22:00 +19°C° 0 mm 1 mps 731 mmHg 67%
23:00 +19°C° 0 mm 1 mps 731 mmHg 68%

Tomorrow, 24 September, Thursday

Time Temperature Precipitation Wind Pressure Humidity
00:00 +19°C° 0 mm 1 mps 731 mmHg 69%
01:00 +18°C° 0 mm 1 mps 731 mmHg 69%
02:00 +18°C° 0 mm 1 mps 731 mmHg 70%
03:00 +18°C° 0 mm 1 mps 731 mmHg 71%
04:00 +17°C° 0 mm 2 mps 731 mmHg 72%
05:00 +17°C° 0 mm 2 mps 731 mmHg 73%
06:00 +17°C° 0 mm 2 mps 731 mmHg 74%
07:00 +17°C° 0 mm 3 mps 731 mmHg 75%
08:00 +19°C° 0 mm 3 mps 732 mmHg 71%
09:00 +20°C° 0 mm 4 mps 732 mmHg 68%
10:00 +22°C° 0 mm 4 mps 732 mmHg 65%
11:00 +23°C° 0 mm 4 mps 732 mmHg 62%
12:00 +23°C° 0 mm 4 mps 732 mmHg 59%
13:00 +25°C° 0 mm 4 mps 732 mmHg 57%
14:00 +24°C° 0.3 mm 3 mps 732 mmHg 58%
15:00 +24°C° 0.3 mm 3 mps 732 mmHg 59%
16:00 +24°C° 0.3 mm 3 mps 732 mmHg 60%
17:00 +21°C° 0.1 mm 2 mps 732 mmHg 64%
18:00 +20°C° 0.1 mm 2 mps 732 mmHg 68%
19:00 +18°C° 0.1 mm 2 mps 732 mmHg 72%
20:00 +18°C° 0 mm 2 mps 732 mmHg 73%
21:00 +18°C° 0 mm 2 mps 732 mmHg 74%
22:00 +17°C° 0 mm 2 mps 732 mmHg 76%
23:00 +17°C° 0 mm 2 mps 731 mmHg 77%

Day after tomorrow, 25 September, Friday

Time Temperature Precipitation Wind Pressure Humidity
00:00 +17°C° 0 mm 2 mps 731 mmHg 79%
01:00 +16°C° 0 mm 2 mps 731 mmHg 81%
02:00 +16°C° 0 mm 2 mps 730 mmHg 82%
03:00 +16°C° 0 mm 2 mps 729 mmHg 83%
04:00 +15°C° 0 mm 2 mps 729 mmHg 84%
05:00 +16°C° 0 mm 3 mps 728 mmHg 83%
06:00 +16°C° 0 mm 3 mps 728 mmHg 82%
07:00 +16°C° 0 mm 3 mps 727 mmHg 81%
08:00 +18°C° 0 mm 4 mps 727 mmHg 75%
09:00 +20°C° 0 mm 4 mps 727 mmHg 68%
10:00 +22°C° 0 mm 5 mps 726 mmHg 61%
11:00 +22°C° 0.1 mm 5 mps 726 mmHg 60%
12:00 +23°C° 0.1 mm 5 mps 725 mmHg 59%
13:00 +23°C° 0.1 mm 5 mps 725 mmHg 58%
14:00 +21°C° 0.9 mm 4 mps 725 mmHg 65%
15:00 +20°C° 0.9 mm 4 mps 724 mmHg 73%
16:00 +18°C° 0.9 mm 3 mps 724 mmHg 81%
17:00 +18°C° 0.7 mm 3 mps 724 mmHg 83%
18:00 +18°C° 0.7 mm 2 mps 724 mmHg 86%
19:00 +18°C° 0.7 mm 1 mps 723 mmHg 88%
20:00 +17°C° 0.3 mm 2 mps 724 mmHg 89%
21:00 +16°C° 0.3 mm 2 mps 724 mmHg 90%
22:00 +16°C° 0.3 mm 3 mps 724 mmHg 91%
23:00 +14°C° 0.1 mm 3 mps 724 mmHg 92%

26 September, Saturday

Time Temperature Precipitation Wind Pressure Humidity
00:00 +14°C° 0.1 mm 3 mps 724 mmHg 92%
01:00 +13°C° 0.1 mm 3 mps 723 mmHg 93%
02:00 +13°C° 0 mm 3 mps 723 mmHg 93%
03:00 +13°C° 0 mm 4 mps 723 mmHg 94%
04:00 +13°C° 0 mm 4 mps 723 mmHg 94%
05:00 +13°C° 0.3 mm 5 mps 722 mmHg 93%
06:00 +14°C° 0.3 mm 5 mps 722 mmHg 93%
07:00 +14°C° 0.3 mm 6 mps 721 mmHg 93%
08:00 +15°C° 0.9 mm 5 mps 721 mmHg 91%
09:00 +15°C° 0.9 mm 5 mps 721 mmHg 90%
10:00 +16°C° 0.9 mm 5 mps 721 mmHg 89%
11:00 +16°C° 1.3 mm 5 mps 721 mmHg 90%
12:00 +17°C° 1.3 mm 4 mps 721 mmHg 91%
13:00 +17°C° 1.3 mm 3 mps 721 mmHg 92%
14:00 +16°C° 0.5 mm 3 mps 721 mmHg 93%
15:00 +14°C° 0.5 mm 4 mps 721 mmHg 93%
16:00 +13°C° 0.5 mm 4 mps 721 mmHg 94%
17:00 +13°C° 1.4 mm 4 mps 721 mmHg 94%
18:00 +12°C° 1.4 mm 5 mps 721 mmHg 94%
19:00 +10°C° 1.4 mm 6 mps 721 mmHg 95%
20:00 +10°C° 2.7 mm 6 mps 721 mmHg 95%
21:00 +10°C° 2.7 mm 6 mps 721 mmHg 95%
22:00 +10°C° 2.7 mm 6 mps 721 mmHg 95%
23:00 +10°C° 0.6 mm 6 mps 721 mmHg 94%

27 September, Sunday

Time Temperature Precipitation Wind Pressure Humidity
00:00 +10°C° 0.6 mm 5 mps 721 mmHg 93%
01:00 +10°C° 0.6 mm 5 mps 721 mmHg 93%
02:00 +10°C° 0.1 mm 5 mps 721 mmHg 92%
03:00 +10°C° 0.1 mm 5 mps 722 mmHg 92%
04:00 +10°C° 0.1 mm 5 mps 722 mmHg 91%
05:00 +9°C° 0.2 mm 5 mps 722 mmHg 91%
06:00 +9°C° 0.2 mm 5 mps 722 mmHg 91%
07:00 +9°C° 0.2 mm 6 mps 723 mmHg 91%
08:00 +9°C° 0.2 mm 6 mps 723 mmHg 90%
09:00 +8°C° 0.2 mm 7 mps 723 mmHg 90%
10:00 +8°C° 0.2 mm 7 mps 724 mmHg 89%
11:00 +6°C° 0.3 mm 8 mps 724 mmHg 89%
12:00 +6°C° 0.3 mm 8 mps 724 mmHg 88%
13:00 +5°C° 0.3 mm 9 mps 724 mmHg 88%
14:00 +5°C° 0.5 mm 9 mps 725 mmHg 88%
15:00 +5°C° 0.5 mm 9 mps 725 mmHg 88%
16:00 +3°C° 0.5 mm 9 mps 725 mmHg 89%
17:00 +3°C° 1.5 mm 9 mps 725 mmHg 89%
18:00 +4°C° 1.5 mm 8 mps 726 mmHg 89%
19:00 +5°C° 1.5 mm 8 mps 726 mmHg 90%
20:00 +5°C° 2.2 mm 8 mps 726 mmHg 91%
21:00 +5°C° 2.2 mm 8 mps 726 mmHg 92%
22:00 +5°C° 2.2 mm 8 mps 726 mmHg 92%
23:00 +5°C° 2.6 mm 8 mps 725 mmHg 92%

28 September, Monday

Time Temperature Precipitation Wind Pressure Humidity
00:00 +5°C° 2.6 mm 8 mps 725 mmHg 92%
01:00 +6°C° 2.6 mm 9 mps 725 mmHg 91%
02:00 +6°C° 2.3 mm 9 mps 725 mmHg 91%
03:00 +5°C° 2.3 mm 9 mps 725 mmHg 91%
04:00 +5°C° 2.3 mm 10 mps 725 mmHg 91%
05:00 +5°C° 2.8 mm 10 mps 725 mmHg 91%
06:00 +5°C° 2.8 mm 10 mps 726 mmHg 90%
07:00 +5°C° 2.8 mm 10 mps 726 mmHg 90%
08:00 +5°C° 1.5 mm 10 mps 726 mmHg 90%
09:00 +3°C° 1.5 mm 10 mps 727 mmHg 91%
10:00 +3°C° 1.5 mm 9 mps 727 mmHg 91%
11:00 +3°C° 1.5 mm 9 mps 727 mmHg 91%
12:00 +3°C° 1.5 mm 9 mps 728 mmHg 91%
13:00 +3°C° 1.5 mm 9 mps 728 mmHg 91%
14:00 +4°C° 1 mm 8 mps 729 mmHg 90%
15:00 +5°C° 1 mm 8 mps 729 mmHg 90%
16:00 +5°C° 1 mm 8 mps 729 mmHg 89%
17:00 +5°C° 0.3 mm 7 mps 730 mmHg 87%
18:00 +5°C° 0.3 mm 7 mps 730 mmHg 86%
19:00 +5°C° 0.3 mm 6 mps 730 mmHg 85%
20:00 +6°C° 0.1 mm 5 mps 731 mmHg 83%
21:00 +7°C° 0.1 mm 5 mps 731 mmHg 82%
22:00 +7°C° 0.1 mm 4 mps 731 mmHg 81%
23:00 +7°C° 0 mm 4 mps 731 mmHg 83%
Show more